Back to catalog

STARLINK-4443

AliveCommunicationsSSO
NORAD 53508·PAYLOAD·🇺🇸 United States

Launched Aug 12, 2022 from Vandenberg Space Force Base

Loading…

Next Passes (next 24 hours)

TLE

FreshSource: CelesTrak SupGP

Epoch: Sep 14, 2026, 13:22 UTC

1 53508C 22099AV  26257.55743056 -.00013670  00000+0 -42458-3 0  2571
2 53508  97.2863  15.3175 0001234  90.7081 267.6315 15.33429183    15

Track STARLINK-4443 in real time with AllMySat

Download on the App Store